Accueil
METAR-TAF:

METAR-TAF

Aéroports :

Plate-forme pétrolière

Goeree Le, Pays-Bas

latitude: 51-55-33N, longitude: 3-40-12E, altitude: 19 m

Observation

Le bulletin a été fait il y a 27 minutes, à 15:55 UTC
Vent 36 kt de ouest/sud-ouest
Température 18°C
Humidité 73%
Pression 1008 hPa
Visibilité 10 km ou plus

METAR: EHSC 281555Z AUTO 24036KT 9999 ///////// 18/13 Q1008 W18/H25

Heure: 18:22 (16:22 UTC)


TAF: absent

Observations et prévisions météorologiques de plus de 4000 aéroports (messages METAR et TAF).

Les stations disponibles sont représentées par des disques jaunes et rouges sur la carte.

Passer la souris dessus pour voir le nom de la station.

Cliquer dessus pour voir les observations et prévisions météorologiques.

Pour changer de carte: cliquez sur les boutons verts avec une croix noire pour zoomer, sur le bouton vert avec un tiret pour effectuer un zoom arrière, ou sur les flèches vertes pour les cartes adjacentes.


METAR-TAF: